EW8655 Weather Reports


Display with metric or nautical units.
time (UTC)temp
F
wind
direction
speed
MPH
gust
MPH
rain 1hr
in
rain 24hr
in
rain mn
in
humidity
%
barometer
mb
20260902085507 73 179 0.0 2.0 0.00 0.00 0.00 97 1012.1
20260902085008 73 163 0.0 5.0 0.00 0.00 0.00 97 1012.1
20260902084007 73 183 2.0 5.0 0.00 0.00 0.00 97 1012.1
20260902083507 73 183 2.0 5.0 0.00 0.00 0.00 97 1012.1
20260902083008 73 171 2.0 7.0 0.00 0.00 0.00 97 1012.1
20260902082507 73 177 2.0 7.0 0.00 0.00 0.00 97 1012.1
20260902082008 73 179 2.0 5.0 0.00 0.00 0.00 97 1012.1
20260902081507 73 188 5.0 5.0 0.00 0.00 0.00 97 1012.1
20260902081009 73 196 5.0 5.0 0.00 0.00 0.00 97 1012.1
20260902080508 72 202 5.0 5.0 0.00 0.00 0.00 97 1012.1
20260902080009 72 193 5.0 5.0 0.00 0.00 0.00 97 1012.1
20260902074507 72 188 1.0 5.0 0.00 0.00 0.00 97 1012.1
20260902074008 72 175 0.0 2.0 0.00 0.00 0.00 97 1012.1
20260902073008 71 159 0.0 2.0 0.00 0.00 0.00 97 1012.1
20260902072007 71 181 1.0 5.0 0.00 0.00 0.00 97 1012.1
20260902071507 71 177 0.0 5.0 0.00 0.00 0.00 97 1012.1
20260902071007 71 172 0.0 0.0 0.00 0.00 0.00 97 1012.1
20260902070507 71 175 0.0 0.0 0.00 0.00 0.00 97 1012.1
20260902070008 71 149 0.0 2.0 0.00 0.00 0.00 97 1012.1
20260902065506 71 166 0.0 5.0 0.00 0.00 0.00 97 1012.1
20260902064007 71 193 1.0 5.0 0.00 0.00 0.00 97 1012.1
20260902063508 71 173 0.0 0.0 0.00 0.00 0.00 98 1012.1
20260902063008 71 143 0.0 0.0 0.00 0.00 0.00 98 1012.1
20260902062507 71 139 0.0 0.0 0.00 0.00 0.00 98 1012.1
20260902062007 71 124 0.0 0.0 0.00 0.00 0.00 98 1012.1
20260902061506 71 128 0.0 0.0 0.00 0.00 0.00 97 1012.1
20260902061007 71 139 0.0 0.0 0.00 0.00 0.00 97 1013.1
20260902060508 70 136 0.0 0.0 0.00 0.00 0.00 97 1013.1
20260902060007 71 134 0.0 0.0 0.00 0.00 0.00 97 1013.1
20260902055507 71 132 0.0 0.0 0.00 0.00 0.00 97 1013.1
20260902055008 71 136 0.0 0.0 0.00 0.00 0.00 97 1013.1
20260902054507 71 136 0.0 0.0 0.00 0.00 0.00 97 1013.1
20260902053508 71 124 0.0 0.0 0.00 0.00 0.00 97 1013.1
20260902053007 71 137 0.0 0.0 0.00 0.00 0.00 97 1013.1
20260902052507 71 140 0.0 0.0 0.00 0.00 0.00 97 1013.1
20260902051507 71 131 0.0 0.0 0.00 0.00 0.00 97 1013.1
20260902051008 71 131 0.0 0.0 0.00 0.00 0.00 97 1013.1
20260902050507 71 139 0.0 0.0 0.00 0.00 0.00 97 1013.1
20260902050008 71 139 0.0 0.0 0.00 0.00 0.00 97 1013.1
20260902045507 71 132 0.0 0.0 0.00 0.00 0.00 97 1013.1
20260902044507 71 139 0.0 0.0 0.00 0.00 0.00 97 1013.1
20260902044008 71 136 0.0 0.0 0.00 0.00 0.00 97 1013.1
20260902043508 71 120 0.0 2.0 0.00 0.00 0.00 97 1013.1
20260902042507 71 110 0.0 2.0 0.00 0.00 0.00 97 1013.1
20260902042008 71 112 0.0 2.0 0.00 0.00 0.00 97 1013.1
20260902041507 71 141 0.0 0.0 0.00 0.00 0.00 97 1013.1
20260902041007 71 120 0.0 0.0 0.00 0.00 0.00 97 1013.1
20260902040007 71 113 0.0 0.0 0.00 0.00 0.00 97 1013.1
20260902035007 71 144 0.0 0.0 0.00 0.00 0.00 97 1013.1
20260902034506 71 142 0.0 0.0 0.00 0.00 0.00 97 1013.1
20260902034007 71 145 0.0 0.0 0.00 0.00 0.00 97 1013.1
20260902033008 71 130 0.0 0.0 0.00 0.00 0.00 97 1013.1
20260902032007 71 122 0.0 2.0 0.00 0.00 0.00 98 1013.1
20260902031507 71 112 0.0 0.0 0.00 0.00 0.00 98 1013.1
20260902030507 71 119 0.0 0.0 0.00 0.00 0.00 98 1013.1
20260902030007 71 142 0.0 0.0 0.00 0.00 0.00 98 1013.1
20260902025507 71 134 0.0 0.0 0.00 0.00 0.00 98 1013.1
20260902025008 71 142 0.0 0.0 0.00 0.00 0.00 98 1013.1
20260902024007 71 129 0.0 0.0 0.00 0.00 0.00 98 1013.1
20260902023507 71 120 0.0 0.0 0.00 0.00 0.00 98 1013.1
20260902023007 71 145 0.0 2.0 0.00 0.00 0.00 97 1013.1
20260902022507 71 136 0.0 2.0 0.00 0.00 0.00 97 1013.1
20260902022008 71 142 0.0 0.0 0.00 0.00 0.00 97 1013.1
20260902021506 71 128 0.0 0.0 0.00 0.00 0.00 97 1013.1
20260902021007 71 139 0.0 2.0 0.00 0.00 0.00 97 1013.1
20260902020507 71 136 0.0 2.0 0.00 0.00 0.00 97 1013.1
20260902020007 71 125 0.0 2.0 0.00 0.00 0.00 97 1013.1
20260902015506 71 115 0.0 2.0 0.00 0.00 0.00 97 1013.1
20260902015007 71 118 2.0 5.0 0.00 0.00 0.00 97 1013.1
20260902014507 71 125 2.0 5.0 0.00 0.00 0.00 97 1013.1
20260902013507 71 121 5.0 9.0 0.00 0.00 0.00 97 1013.1
20260902013007 71 112 6.0 9.0 0.00 0.00 0.00 97 1013.1
20260902012506 71 98 7.0 9.0 0.00 0.00 0.00 97 1013.1
20260902012007 71 102 7.0 9.0 0.00 0.00 0.00 97 1013.1
20260902011506 71 78 7.0 9.0 0.00 0.00 0.00 97 1013.1
20260902011007 71 96 7.0 9.0 0.00 0.00 0.00 97 1013.1
20260902010507 71 73 7.0 9.0 0.00 0.00 0.00 97 1013.1
20260902005506 71 73 7.0 7.0 0.00 0.00 0.00 97 1013.1
20260902005007 71 79 7.0 7.0 0.00 0.00 0.00 97 1013.1
20260902004007 71 82 7.0 9.0 0.00 0.00 0.00 96 1012.1
20260902003507 71 73 7.0 7.0 0.00 0.00 0.00 96 1012.1
20260902003007 71 82 5.0 7.0 0.00 0.00 0.00 96 1012.1
20260902002506 71 86 5.0 7.0 0.00 0.00 0.00 96 1012.1
20260902002007 71 85 5.0 7.0 0.00 0.00 0.00 96 1012.1
20260902001506 71 82 5.0 5.0 0.00 0.00 0.00 96 1012.1
20260902001008 71 84 5.0 5.0 0.00 0.00 0.00 96 1012.1
20260901235507 71 94 5.0 7.0 0.00 0.00 0.00 95 1012.1
20260901235007 71 80 5.0 5.0 0.00 0.00 0.00 95 1012.1
20260901234506 71 96 5.0 7.0 0.00 0.00 0.00 95 1012.1
20260901234007 71 101 5.0 7.0 0.00 0.00 0.00 94 1012.1
20260901233507 71 76 5.0 5.0 0.00 0.00 0.00 94 1012.1
20260901232507 71 90 5.0 7.0 0.00 0.00 0.00 94 1012.1
20260901231507 72 76 5.0 5.0 0.00 0.00 0.00 93 1012.1
20260901230507 72 71 5.0 7.0 0.00 0.00 0.00 92 1012.1
20260901225506 73 81 5.0 7.0 0.00 0.00 0.00 92 1012.1
20260901225007 73 96 5.0 7.0 0.00 0.00 0.00 92 1012.1
20260901223507 73 85 5.0 5.0 0.00 0.00 0.00 91 1012.1
20260901223007 73 78 2.0 5.0 0.00 0.00 0.00 91 1012.1
20260901222506 74 79 3.0 5.0 0.00 0.00 0.00 91 1012.1
20260901222007 74 80 5.0 5.0 0.00 0.00 0.00 91 1012.1
20260901221507 73 78 5.0 5.0 0.00 0.00 0.00 91 1012.1
20260901221007 73 74 5.0 5.0 0.00 0.00 0.00 91 1012.1
20260901220507 73 74 5.0 5.0 0.00 0.00 0.00 91 1012.1
20260901220007 73 93 5.0 5.0 0.00 0.00 0.00 91 1012.1
20260901215507 74 72 5.0 5.0 0.00 0.00 0.00 91 1012.1
20260901215007 74 67 5.0 7.0 0.00 0.00 0.00 91 1012.1
20260901214506 74 69 5.0 7.0 0.00 0.00 0.00 91 1012.1
20260901214007 74 72 5.0 7.0 0.00 0.00 0.00 91 1012.1
20260901213507 73 78 5.0 5.0 0.00 0.00 0.00 91 1012.1
20260901213007 73 84 5.0 5.0 0.00 0.00 0.00 91 1012.1
20260901212507 74 80 5.0 7.0 0.00 0.00 0.00 91 1012.1
20260901212007 74 88 5.0 7.0 0.00 0.00 0.00 91 1012.1
20260901211507 74 88 5.0 5.0 0.00 0.00 0.00 91 1012.1
20260901211007 73 75 5.0 5.0 0.00 0.00 0.00 91 1012.1
20260901210006 73 75 5.0 7.0 0.00 0.00 0.00 90 1012.1
20260901205506 74 69 5.0 7.0 0.00 0.00 0.00 90 1012.1
20260901204506 75 90 2.0 5.0 0.00 0.00 0.00 91 1012.1
20260901202506 73 97 5.0 7.0 0.00 0.00 0.00 92 1012.1
20260901202007 73 90 5.0 5.0 0.00 0.00 0.00 92 1012.1
20260901201506 73 84 5.0 5.0 0.00 0.00 0.00 92 1012.1
20260901201007 73 88 5.0 7.0 0.00 0.00 0.00 91 1012.1
20260901200507 73 74 5.0 7.0 0.00 0.00 0.00 91 1012.1
20260901195506 73 79 5.0 7.0 0.00 0.00 0.00 91 1012.1
20260901194506 74 83 5.0 5.0 0.00 0.00 0.00 91 1012.1
20260901194007 74 79 5.0 7.0 0.00 0.00 0.00 91 1012.1
20260901193507 74 98 5.0 7.0 0.00 0.00 0.00 91 1012.1
20260901193007 74 76 5.0 7.0 0.00 0.00 0.00 91 1012.1
20260901192506 74 78 5.0 7.0 0.00 0.00 0.00 91 1012.1
20260901192007 74 78 5.0 7.0 0.00 0.00 0.00 91 1012.1
20260901191506 73 76 5.0 7.0 0.00 0.00 0.00 91 1012.1
20260901191007 73 80 5.0 7.0 0.00 0.00 0.00 91 1012.1
20260901190507 74 88 5.0 7.0 0.00 0.00 0.00 91 1012.1
20260901190007 74 71 5.0 7.0 0.00 0.00 0.00 91 1012.1
20260901185006 74 80 5.0 7.0 0.00 0.00 0.00 92 1012.1
20260901184006 74 77 5.0 7.0 0.00 0.00 0.00 91 1012.1
20260901183506 74 71 5.0 5.0 0.00 0.00 0.00 91 1012.1
20260901183006 74 64 2.0 5.0 0.00 0.00 0.00 91 1012.1
20260901182506 74 35 4.0 5.0 0.00 0.00 0.00 91 1012.1
20260901182007 74 62 2.0 5.0 0.00 0.00 0.00 91 1012.1
20260901181506 74 37 2.0 5.0 0.00 0.00 0.00 92 1012.1
20260901181006 74 45 2.0 5.0 0.00 0.00 0.00 92 1012.1
20260901180506 74 54 2.0 5.0 0.00 0.00 0.00 92 1012.1
20260901180006 74 46 2.0 5.0 0.00 0.00 0.00 92 1012.1
20260901175506 74 43 2.0 5.0 0.00 0.00 0.00 92 1011.8
20260901175006 74 45 2.0 5.0 0.00 0.00 0.00 92 1011.3
20260901174506 74 58 2.0 5.0 0.00 0.00 0.00 92 1011.6
20260901174008 74 52 2.0 5.0 0.00 0.00 0.00 92 1011.1
20260901173507 74 47 3.0 5.0 0.00 0.00 0.00 92 1011.1
20260901173007 74 45 5.0 5.0 0.00 0.00 0.00 92 1011.1
20260901172506 74 41 5.0 5.0 0.00 0.00 0.00 92 1011.1
20260901172007 74 52 2.0 5.0 0.00 0.00 0.00 92 1011.1
20260901171006 74 57 2.0 5.0 0.00 0.00 0.00 92 1010.6
20260901170506 74 50 5.0 5.0 0.00 0.00 0.00 93 1011.1
20260901170006 74 46 2.0 5.0 0.00 0.00 0.00 93 1011.1
20260901165006 74 61 2.0 5.0 0.00 0.00 0.00 94 1010.8
20260901164506 74 36 2.0 5.0 0.00 0.00 0.00 94 1010.6
20260901164006 73 16 3.0 9.0 0.00 0.00 0.00 95 1011.1
20260901163506 73 21 5.0 12.0 0.00 0.00 0.00 95 1011.1
20260901163006 73 23 9.0 12.0 0.00 0.00 0.00 94 1011.1
20260901162505 73 13 9.0 14.0 0.00 0.00 0.00 94 1010.4
20260901162006 73 23 9.0 14.0 0.00 0.00 0.00 94 1010.1
20260901161506 73 20 7.0 14.0 0.00 0.00 0.00 94 1010.1
20260901161007 73 18 9.0 16.0 0.00 0.00 0.00 94 1010.1
20260901160506 73 37 9.0 16.0 0.00 0.00 0.00 93 1010.1
20260901155505 73 0 9.0 16.0 0.00 0.00 0.00 93 1010.1
20260901155006 73 4 9.0 16.0 0.00 0.00 0.00 92 1010.1
20260901154007 74 355 3.0 12.0 0.00 0.00 0.00 91 1010.1
20260901153507 75 347 4.0 7.0 0.00 0.00 0.00 91 1010.1
20260901153007 74 4 2.0 7.0 0.00 0.00 0.00 91 1010.1
20260901152505 74 12 2.0 7.0 0.00 0.00 0.00 90 1010.1
20260901152007 74 330 2.0 9.0 0.00 0.00 0.00 89 1010.1
20260901151505 74 348 6.0 9.0 0.00 0.00 0.00 89 1010.1
20260901151006 74 357 5.0 9.0 0.00 0.00 0.00 87 1010.1
20260901150006 76 352 2.0 7.0 0.00 0.00 0.00 86 1010.1
20260901145006 77 344 2.0 5.0 0.00 0.00 0.00 85 1010.1
20260901144506 78 299 2.0 7.0 0.00 0.00 0.00 86 1010.1
20260901144006 77 341 3.0 9.0 0.00 0.00 0.00 87 1010.1
20260901143506 77 293 7.0 9.0 0.00 0.00 0.00 87 1010.1
20260901143006 77 288 5.0 9.0 0.00 0.00 0.00 87 1010.1
20260901142505 77 264 5.0 9.0 0.00 0.00 0.00 88 1010.1
20260901142006 77 298 0.0 5.0 0.00 0.00 0.00 89 1010.1
20260901141506 77 318 1.0 5.0 0.00 0.00 0.00 89 1010.1
20260901140505 77 265 2.0 7.0 0.00 0.00 0.00 91 1010.1
20260901140006 76 271 5.0 9.0 0.00 0.00 0.00 92 1010.1
20260901135505 75 277 6.0 9.0 0.00 0.00 0.00 92 1010.1
20260901135006 75 260 7.0 9.0 0.00 0.00 0.00 93 1010.1
20260901134506 75 252 7.0 9.0 0.00 0.00 0.00 93 1010.1
20260901134007 75 265 7.0 9.0 0.00 0.00 0.00 93 1010.1
20260901133506 75 253 7.0 9.0 0.00 0.00 0.00 94 1010.1
20260901133007 75 260 7.0 9.0 0.00 0.00 0.00 95 1010.1
20260901132505 74 256 7.0 9.0 0.00 0.00 0.00 95 1010.1
20260901132006 74 250 7.0 9.0 0.00 0.00 0.00 96 1010.1
20260901131506 74 243 7.0 9.0 0.00 0.00 0.00 97 1010.1
20260901131006 74 237 7.0 7.0 0.00 0.00 0.00 97 1010.1
20260901130506 73 230 7.0 7.0 0.00 0.00 0.00 99 1010.1
20260901125505 73 245 5.0 5.0 0.00 0.00 0.00 99 1010.1
20260901125006 73 225 5.0 7.0 0.00 0.00 0.00 99 1010.1
20260901124506 73 213 5.0 7.0 0.00 0.00 0.00 100 1010.1
20260901124007 72 204 5.0 7.0 0.00 0.00 0.00 100 1010.1
20260901123006 72 242 5.0 5.0 0.00 0.00 0.00 100 1010.1
20260901122506 72 229 5.0 5.0 0.00 0.00 0.00 100 1010.1
20260901122007 71 222 2.0 5.0 0.00 0.00 0.00 100 1010.1
20260901121506 71 214 5.0 7.0 0.00 0.00 0.00 100 1010.1
20260901121006 71 197 5.0 7.0 0.00 0.00 0.00 100 1010.1
20260901120507 71 197 2.0 5.0 0.00 0.00 0.00 100 1010.1
20260901120006 71 203 2.0 5.0 0.00 0.00 0.00 100 1010.1
20260901115506 71 189 2.0 5.0 0.00 0.00 0.00 100 1010.1
20260901115006 71 171 2.0 5.0 0.00 0.00 0.00 100 1010.1
20260901114506 71 178 0.0 5.0 0.00 0.00 0.00 100 1010.1
20260901114007 71 170 2.0 5.0 0.00 0.00 0.00 100 1010.1
20260901113506 71 196 0.0 5.0 0.00 0.00 0.00 100 1010.1
20260901113007 71 166 2.0 5.0 0.00 0.00 0.00 100 1010.1
20260901112505 71 182 2.0 5.0 0.00 0.00 0.00 100 1010.1
20260901112007 71 189 0.0 2.0 0.00 0.00 0.00 100 1010.1
20260901111506 71 214 2.0 2.0 0.00 0.00 0.00 100 1010.1
20260901111006 71 216 0.0 2.0 0.00 0.00 0.00 100 1010.1
20260901110506 71 216 0.0 0.0 0.00 0.00 0.00 100 1010.1
20260901110005 71 215 0.0 0.0 0.00 0.00 0.00 100 1010.1
20260901105505 71 213 0.0 0.0 0.00 0.00 0.00 100 1010.1
20260901105006 71 186 0.0 0.0 0.00 0.00 0.00 100 1010.1
20260901104505 71 116 0.0 0.0 0.00 0.00 0.00 100 1010.1
20260901104006 71 115 0.0 0.0 0.00 0.00 0.00 100 1010.1
20260901103506 71 115 0.0 0.0 0.00 0.00 0.00 100 1010.1
20260901103006 71 109 0.0 0.0 0.00 0.00 0.00 100 1010.1
20260901102505 71 111 0.0 0.0 0.00 0.00 0.00 100 1010.1
20260901102006 71 117 0.0 0.0 0.00 0.00 0.00 100 1010.1
20260901101506 71 118 0.0 0.0 0.00 0.00 0.00 100 1010.1
20260901100505 71 128 0.0 5.0 0.00 0.00 0.00 100 1010.1
20260901100005 71 115 0.0 5.0 0.00 0.00 0.00 100 1010.1
20260901094006 71 96 2.0 5.0 0.00 0.00 0.00 100 1010.1
20260901093506 70 96 2.0 5.0 0.00 0.00 0.00 100 1010.1
20260901093007 70 97 1.0 2.0 0.00 0.00 0.00 100 1010.1
20260901092008 70 58 0.0 0.0 0.00 0.00 0.00 100 1010.1
20260901091507 70 4 0.0 0.0 0.00 0.00 0.00 100 1010.1
20260901090507 70 50 0.0 0.0 0.00 0.00 0.00 100 1010.1